[[{"header":{"parameterUnit":"m.s-1","parameterCategory":1,"la1":30.2991,"la2":30.254,"lo1":-89.0895,"lo2":-89.0444,"dy":0.0017,"dx":0.0017,"nx":28,"ny":28,"refTime":"2024-02-02T03:00:00:Z","depth":0,"parameterNumber":2,"parameterNumberName":"U-component_of_WINDS"},"data":[0,0,0,0,0,0,0,0,0,0,0,0,0,0,0,0,0,0,0,0,0,0,0,0,0,0,0,0,0,0,0,0,0,0,0,0,0,0,0,0,0,0,0,0,0,0,0,0,0,0,0,0,0,0,0,0,0,0,-1.961,-1.9611,0,-1.9644,-1.9645,-1.9645,-1.9591,-1.9589,-1.9587,-1.9585,-1.9621,-1.9623,-1.9626,0,0,0,0,0,0,0,0,0,0,0,0,0,-1.9501,-1.9503,-1.961,-1.9611,-1.9611,-1.9644,-1.9645,-1.9645,-1.9591,-1.9589,-1.9587,-1.9584,-1.962,-1.9623,-1.9626,0,0,0,0,0,0,0,0,0,0,0,0,0,-1.9543,-1.9504,-1.961,-1.9588,-1.9586,-1.9644,-1.9645,-1.9645,-1.9592,-1.9589,-1.9586,-1.9583,-1.9619,-1.9623,-1.9627,-1.9708,0,0,-1.9639,-1.9641,0,0,0,0,0,0,0,0,-1.9541,-1.9547,-1.9591,-1.959,-1.9588,-1.961,-1.9619,-1.9666,-1.9592,-1.959,-1.9585,-1.9582,-1.962,-1.9623,-1.9636,-1.9709,-1.9711,-1.9639,-1.9642,-1.9644,-1.9645,0,0,0,0,0,0,0,-1.9538,-1.9545,-1.9624,-1.9592,-1.959,-1.9577,-1.958,-1.9628,-1.962,-1.959,-1.9586,-1.9591,-1.9618,-1.9632,-1.9636,-1.9711,-1.9639,-1.9643,-1.9645,-1.9647,-1.9854,-1.9857,0,0,0,0,0,0,-1.9537,-1.9543,-1.9623,-1.9625,-1.9557,-1.9582,-1.9585,-1.9606,-1.9619,-1.9619,-1.9593,-1.9588,-1.9627,-1.9632,-1.9637,-1.9734,-1.9644,-1.9647,-1.965,-1.9851,-1.9855,-1.9858,0,0,0,0,0,0,-1.9535,-1.9545,-1.9621,-1.9583,-1.9592,-1.9586,-1.9611,-1.9608,-1.9622,-1.9622,-1.962,-1.9608,-1.9625,-1.9632,-1.9691,-1.9734,-1.9649,-1.9653,-1.9848,-1.9853,-1.9857,-1.9926,0,0,0,0,0,0,-1.9532,-1.9545,-1.9574,-1.9584,-1.9594,-1.9674,-1.9613,-1.9611,-1.9629,-1.9623,-1.9636,-1.9635,-1.9623,-1.9685,-1.9695,-1.9738,-1.9656,-1.9844,-1.985,-1.9855,-1.992,-1.9933,-1.9943,0,0,0,0,0,-1.9529,-1.9592,-1.9576,-1.9586,-1.9631,-1.9676,-1.9682,-1.9666,-1.9633,-1.9663,-1.9663,-1.9635,-1.9728,-1.9692,-1.9702,-1.9747,-1.9841,-1.9848,-1.9855,-1.9915,-1.993,-1.9943,0,0,0,0,0,0,-1.9588,-1.9593,-1.9575,-1.9644,-1.966,-1.9667,-1.9704,-1.9683,-1.9709,-1.9702,-1.9682,-1.9685,-1.9749,-1.9754,-1.9713,-1.9827,-1.9779,-1.9788,-1.9821,-1.9836,-1.9847,-1.9844,-1.9659,0,0,0,0,0,-1.9609,-1.9644,-1.9647,-1.9708,-1.9717,-1.971,-1.9729,-1.9715,-1.9731,-1.9738,-1.9742,-1.9759,-1.9792,-1.9814,-1.9845,-1.9921,-1.9924,-1.9957,-1.9969,-1.9979,-1.9987,-2.0029,-2.0044,-1.9881,-1.9881,-1.9881,0,0,-1.9652,-1.966,-1.9683,-1.972,-1.9731,-1.9769,-1.9716,-1.9757,-1.9786,-1.9744,-1.98,-1.9805,-1.9822,-1.9891,-1.9921,-1.9897,-2.0033,-1.9988,-1.9995,-1.9998,-2.0038,-2.0053,-2.0067,-1.9886,-1.9885,-1.9884,0,0,-1.9751,-1.976,-1.9812,-1.9825,-1.9842,-1.9837,-1.985,-1.9861,-1.9862,-1.9918,-1.9888,-1.9922,-1.9979,-1.9993,-2.0008,-2.0116,-2.0091,-2.0126,-2.0187,-2.0228,-2.0241,-2.0252,-2.0291,-2.0305,-2.0134,-2.0135,-2.0135,0,-1.9803,-1.9858,-1.9841,-1.9886,-1.9904,-1.9869,-1.9921,-1.9934,-1.9961,-1.9974,-1.9947,-2.002,-2.0029,-2.0101,-2.0127,-2.014,-2.0155,-2.0124,-2.024,-2.0251,-2.0262,-2.0298,-2.0313,-2.0139,-2.0138,-2.0138,-2.0137,0,-1.9922,-1.9961,-2.0001,-2.0028,-2.005,-2.0099,-2.009,-2.0115,-2.0101,-2.0099,-2.0158,-2.0168,-2.0201,-2.0217,-2.0203,-2.0288,-2.0272,-2.0243,-2.0194,-2.0282,-2.0316,-2.033,-2.0145,-2.0143,-2.0142,-2.0141,0,0,-2.0056,-2.0075,-2.009,-2.0103,-2.0121,-2.0151,-2.0199,-2.0231,-2.0253,-2.0273,-2.0313,-2.0364,-2.0338,-2.0355,-2.0343,-2.0379,-2.0464,-2.0345,-2.0346,-2.0367,-2.0559,-2.058,-2.0596,-2.0448,-2.0451,-2.0453,-2.0557,0,-2.0155,-2.0237,-2.0224,-2.0304,-2.034,-2.0309,-2.0351,-2.0367,-2.0368,-2.04,-2.0401,-2.0437,-2.0399,-2.041,-2.0444,-2.0446,-2.0502,-2.0439,-2.0486,-2.0488,-2.0481,-2.0614,-2.0636,-2.0734,-2.057,-2.0573,-2.0574,0,-2.028,-2.0305,-2.0389,-2.0403,-2.0418,-2.0455,-2.0485,-2.0515,-2.0534,-2.0532,-2.0552,-2.0534,-2.0583,-2.0535,-2.0603,-2.056,-2.0579,-2.0584,-2.0587,-2.059,-2.0535,-2.062,-2.0764,-2.0779,-2.0595,-2.0593,-2.0592,0,-2.037,-2.0425,-2.0482,-2.0494,-2.0512,-2.0539,-2.0548,-2.0564,-2.0585,-2.0611,-2.0624,-2.0656,-2.0673,-2.0699,-2.069,-2.0656,-2.076,-2.0711,-2.076,-2.0761,-2.0782,-2.0781,-2.0931,-2.0796,-2.0796,-2.0796,-2.0795,0,-2.048,-2.0533,-2.0523,-2.0558,-2.0617,-2.0603,-2.0661,-2.0666,-2.0681,-2.0717,-2.0693,-2.0727,-2.0714,-2.0749,-2.0743,-2.0801,-2.0809,-2.0809,-2.0807,-2.0811,-2.0811,-2.0822,-2.0815,-2.08,-2.0799,-2.0798,-2.0797,0,-2.059,-2.0586,-2.0646,-2.0658,-2.0663,-2.0705,-2.0716,-2.075,-2.075,-2.0796,-2.0806,-2.0806,-2.0846,-2.084,-2.0884,-2.088,-2.0952,-2.0942,-2.0946,-2.0943,-2.0993,-2.0988,-2.1155,-2.1176,-2.1028,-2.1029,-2.103,0,-2.066,-2.07,-2.0717,-2.074,-2.075,-2.0787,-2.0808,-2.0797,-2.0821,-2.0846,-2.0877,-2.0915,-2.0943,-2.1009,-2.1013,-2.1047,-2.1037,-2.1093,-2.1041,-2.1045,-2.1037,-2.1035,-2.1039,-2.1102,-2.1104,-2.1106,-2.1107,0,-2.0786,-2.0782,-2.0813,-2.0845,-2.0872,-2.0896,-2.0918,-2.0938,-2.0929,-2.0957,-2.0997,-2.102,-2.1066,-2.1104,-2.1136,-2.1146,-2.1125,-2.1123,-2.1136,-2.114,-2.1141,-2.1141,-2.0973,-2.1119,-2.1118,-2.1117,-2.1116,-2.1116,-2.0877,-2.0911,-2.0929,-2.0966,-2.0982,-2.1003,-2.1036,-2.104,-2.1074,-2.111,-2.1102,-2.1147,-2.1167,-2.1209,-2.1222,-2.1258,-2.1238,-2.1257,-2.1262,-2.1266,-2.1272,-2.1136,-2.1264,-2.1264,-2.1264,-2.1263,-2.1263,0,-2.1001,-2.1012,-2.1046,-2.1078,-2.1107,-2.1086,-2.111,-2.1136,-2.1176,-2.1196,-2.1226,-2.1273,-2.1311,-2.1319,-2.1354,-2.1382,-2.1374,-2.1392,-2.1389,-2.1392,-2.1288,-2.1273,-2.1398,-2.1398,-2.1398,-2.1398,-2.1398,-2.1398,-2.1069,-2.1126,-2.1125,-2.1191,-2.1201,-2.1246,-2.1261,-2.1282,-2.1298,-2.1351,-2.1382,-2.1388,-2.1403,-2.144,-2.1474,-2.1476,-2.149,-2.1512,-2.151,-2.1412,-2.1399,-2.1386,-2.1372,-2.1515,-2.1515,-2.161,-2.1611,-2.1611]},{"header":{"parameterUnit":"m.s-1","parameterCategory":1,"la1":30.2991,"la2":30.254,"lo1":-89.0895,"lo2":-89.0444,"dy":0.0017,"dx":0.0017,"nx":28,"ny":28,"refTime":"2024-02-02T03:00:00:Z","depth":0,"parameterNumber":3,"parameterNumberName":"V-component_of_WINDS"},"data":[0,0,0,0,0,0,0,0,0,0,0,0,0,0,0,0,0,0,0,0,0,0,0,0,0,0,0,0,0,0,0,0,0,0,0,0,0,0,0,0,0,0,0,0,0,0,0,0,0,0,0,0,0,0,0,0,0,0,0.3989,0.3989,0,0.3955,0.3954,0.3954,0.3939,0.3939,0.394,0.394,0.3901,0.39,0.3899,0,0,0,0,0,0,0,0,0,0,0,0,0,0.404,0.4039,0.3989,0.3989,0.3988,0.3955,0.3954,0.3954,0.3939,0.3939,0.394,0.394,0.3901,0.39,0.3899,0,0,0,0,0,0,0,0,0,0,0,0,0,0.4013,0.4039,0.3989,0.3977,0.3976,0.3955,0.3954,0.3954,0.3939,0.3939,0.394,0.394,0.3902,0.39,0.3899,0.3886,0,0,0.3893,0.3893,0,0,0,0,0,0,0,0,0.4014,0.4011,0.3979,0.3978,0.3976,0.3952,0.3958,0.3931,0.3939,0.3953,0.394,0.394,0.3917,0.3915,0.3908,0.3884,0.3883,0.3893,0.3892,0.3892,0.3891,0,0,0,0,0,0,0,0.4016,0.4012,0.3975,0.3979,0.3977,0.3973,0.3969,0.3953,0.3935,0.3952,0.3951,0.3947,0.3917,0.3909,0.3907,0.3882,0.3893,0.3892,0.3891,0.389,0.3847,0.3847,0,0,0,0,0,0,0.4021,0.4014,0.3976,0.3974,0.3996,0.3972,0.3967,0.3959,0.3935,0.3932,0.3947,0.3946,0.3912,0.3909,0.3905,0.389,0.3892,0.389,0.3889,0.3848,0.3847,0.3847,0,0,0,0,0,0,0.4022,0.4017,0.3978,0.3994,0.3989,0.3971,0.3962,0.3959,0.3951,0.3931,0.3928,0.3943,0.3912,0.3908,0.3891,0.3888,0.3889,0.3888,0.3848,0.3848,0.3847,0.3858,0,0,0,0,0,0,0.4023,0.4018,0.4013,0.3994,0.3988,0.3965,0.3961,0.3958,0.3949,0.3948,0.3927,0.3923,0.3912,0.3894,0.389,0.3886,0.3887,0.3848,0.3848,0.3847,0.3858,0.3858,0.3858,0,0,0,0,0,0.4025,0.4017,0.4013,0.4009,0.3982,0.3965,0.3961,0.3949,0.3949,0.3944,0.3931,0.3924,0.3889,0.3892,0.3888,0.3883,0.3848,0.3848,0.3847,0.3858,0.3858,0.3858,0,0,0,0,0,0,0.4035,0.4014,0.401,0.3995,0.3982,0.3963,0.3956,0.395,0.3936,0.3936,0.392,0.3915,0.3901,0.389,0.3894,0.387,0.3868,0.3867,0.3878,0.3878,0.3878,0.3881,0.3885,0,0,0,0,0,0.4036,0.4024,0.4006,0.3995,0.3989,0.3974,0.3966,0.3958,0.3943,0.3938,0.3924,0.3909,0.3895,0.3886,0.3872,0.3857,0.3852,0.3851,0.3851,0.3852,0.3851,0.3842,0.3842,0.3846,0.3846,0.3846,0,0,0.4036,0.4024,0.4017,0.3997,0.3986,0.3974,0.3969,0.3957,0.3948,0.3935,0.392,0.3909,0.3892,0.3876,0.3869,0.3867,0.3849,0.3851,0.3852,0.385,0.3842,0.3842,0.3841,0.3846,0.3846,0.3846,0,0,0.4032,0.4021,0.4011,0.4001,0.3985,0.3975,0.3973,0.3954,0.3947,0.3932,0.3922,0.3911,0.3887,0.3875,0.3866,0.3859,0.3852,0.3854,0.3856,0.3848,0.3848,0.3847,0.3845,0.3844,0.3853,0.3854,0.3854,0,0.4034,0.4017,0.4006,0.3995,0.3986,0.3976,0.3966,0.3956,0.3935,0.3929,0.3928,0.3899,0.3886,0.3868,0.3867,0.3859,0.3856,0.3856,0.3849,0.3848,0.3848,0.3845,0.3845,0.3854,0.3854,0.3854,0.3854,0,0.4022,0.401,0.4003,0.3986,0.3977,0.3966,0.3952,0.3944,0.3937,0.3928,0.3912,0.3897,0.388,0.3875,0.3867,0.3856,0.3856,0.3852,0.3849,0.3848,0.3846,0.3845,0.3855,0.3854,0.3854,0.3854,0,0,0.4021,0.3999,0.3997,0.3989,0.3971,0.3962,0.395,0.3935,0.3928,0.3915,0.3905,0.3886,0.3882,0.3872,0.3863,0.3857,0.3852,0.3853,0.3853,0.3854,0.3839,0.3842,0.3842,0.3848,0.3848,0.3847,0.3841,0,0.4014,0.3995,0.3985,0.3969,0.3958,0.3949,0.3939,0.3927,0.3918,0.3907,0.3896,0.3883,0.388,0.3873,0.3866,0.3854,0.3849,0.3855,0.3838,0.3837,0.3842,0.384,0.3843,0.3837,0.384,0.384,0.3839,0,0.4003,0.3992,0.3976,0.396,0.3955,0.3947,0.3933,0.3922,0.3908,0.3902,0.3892,0.3883,0.3871,0.387,0.3852,0.3856,0.3849,0.3842,0.3841,0.3839,0.3838,0.3838,0.3835,0.3835,0.3838,0.3838,0.3838,0,0.4005,0.3985,0.3973,0.3967,0.3949,0.3943,0.3935,0.3921,0.3913,0.39,0.3895,0.388,0.3872,0.3861,0.3849,0.385,0.3833,0.3831,0.3827,0.3827,0.3823,0.3824,0.382,0.3819,0.3819,0.3819,0.3819,0,0.3999,0.3989,0.3974,0.3967,0.3956,0.3945,0.3934,0.3925,0.3913,0.3903,0.3894,0.3885,0.387,0.3859,0.3849,0.3836,0.3832,0.3827,0.3824,0.3827,0.3828,0.3822,0.3822,0.3819,0.3819,0.3819,0.3819,0,0.3998,0.3988,0.3974,0.3959,0.3955,0.3947,0.3933,0.3926,0.3917,0.3904,0.3901,0.3886,0.3873,0.386,0.3842,0.3835,0.3822,0.3819,0.3828,0.3826,0.3823,0.3824,0.3815,0.3813,0.3814,0.3814,0.3814,0,0.3995,0.3987,0.3971,0.3965,0.3958,0.3947,0.3939,0.3928,0.392,0.3904,0.3898,0.3885,0.3873,0.3852,0.3839,0.3825,0.3822,0.382,0.3819,0.3823,0.3822,0.3822,0.3822,0.382,0.382,0.382,0.382,0,0.3989,0.3985,0.3975,0.3963,0.3954,0.3944,0.3933,0.3928,0.3915,0.3906,0.3893,0.3884,0.3867,0.3853,0.3838,0.3829,0.3822,0.382,0.3819,0.3822,0.3827,0.3824,0.3828,0.382,0.382,0.382,0.382,0.382,0.3987,0.3981,0.3969,0.3958,0.3949,0.394,0.3932,0.3923,0.3912,0.3897,0.3891,0.3878,0.3865,0.3845,0.3836,0.3825,0.3823,0.3821,0.382,0.382,0.3821,0.3829,0.3822,0.3822,0.3822,0.3822,0.3822,0,0.3981,0.3974,0.3964,0.395,0.3942,0.3938,0.3926,0.3919,0.3908,0.3897,0.3886,0.3871,0.3858,0.3845,0.3832,0.3826,0.3822,0.3822,0.3823,0.3821,0.3823,0.3826,0.3825,0.3825,0.3825,0.3825,0.3825,0.3825,0.3978,0.3966,0.3961,0.3945,0.3938,0.3926,0.3919,0.3911,0.3902,0.3886,0.3876,0.3868,0.3856,0.3842,0.383,0.3827,0.3822,0.3823,0.3819,0.3821,0.382,0.382,0.3823,0.3822,0.3822,0.3817,0.3817,0.3817]}]]